Location: Unspecified
(0.0000°N, 0.0000°E)
Time: 20:17:40
(UTC+00:00)

Envisat - Pass Details

Date: 06 June 2020
Orbit: 764 x 766 km, 98.1° (Epoch: 29 October)

Event Time Altitude Azimuth Distance (km) Brightness Sun altitude
Rises 18:14:54 0° 178° (S) 3,231 6.0 -3.7°
Reaches altitude 10° 18:17:16 10° 182° (S) 2,303 5.3 -4.2°
Maximum altitude 18:22:11 52° 258° (WSW) 951 4.0 -5.4°
Drops below altitude 10° 18:27:05 10° 334° (NNW) 2,294 6.3 -6.5°
Sets 18:29:26 0° 339° (NNW) 3,217 7.0 -7.0°
